FW9915 Weather Reports


Display with metric or nautical units.
time (UTC)temp
F
wind
direction
speed
MPH
gust
MPH
rain 1hr
in
rain 24hr
in
rain mn
in
humidity
%
barometer
mb
20260508052524 54 150 3.0 7.0 0.00 0.00 0.00 99 1016.4
20260508051524 54 185 1.0 4.0 0.00 0.00 0.00 99 1016.6
20260508050524 53 193 3.0 4.0 0.00 0.00 0.00 99 1016.6
20260508045544 53 180 2.0 4.0 0.00 0.00 0.00 99 1016.4
20260508044544 53 195 3.0 7.0 0.00 0.00 0.00 99 1016.3
20260508043524 53 138 1.0 2.0 0.00 0.00 0.00 99 1016.1
20260508042524 53 162 1.0 2.0 0.00 0.00 0.00 99 1016.2
20260508041556 53 164 1.0 2.0 0.00 0.00 0.00 99 1016.2
20260508040548 52 180 0.0 2.0 0.00 0.00 0.00 99 1016.2
20260508035536 52 201 1.0 2.0 0.00 0.00 0.00 99 1016.2
20260508034524 52 201 1.0 2.0 0.00 0.00 0.00 99 1016.2
20260508033524 52 121 2.0 4.0 0.00 0.00 0.00 99 1016.1
20260508032524 52 180 1.0 2.0 0.00 0.00 0.00 99 1016.1
20260508030544 52 135 2.0 4.0 0.00 0.00 0.00 99 1015.9
20260508025524 52 146 2.0 4.0 0.00 0.00 0.00 99 1015.9
20260508024524 52 135 2.0 4.0 0.00 0.00 0.00 99 1015.8
20260508023604 52 209 1.0 4.0 0.00 0.00 0.00 99 1016.0
20260508022544 52 189 4.0 7.0 0.00 0.00 0.00 99 1016.0
20260508021628 52 199 2.0 4.0 0.00 0.00 0.00 99 1015.9
20260508020524 52 182 4.0 7.0 0.00 0.00 0.00 99 1015.9
20260508015536 52 192 4.0 7.0 0.00 0.00 0.00 99 1016.0
20260508014645 52 193 3.0 7.0 0.00 0.00 0.00 99 1016.0
20260508013524 52 195 4.0 7.0 0.00 0.00 0.00 99 1016.0
20260508012536 51 196 2.0 7.0 0.00 0.00 0.00 99 1016.0
20260508011525 52 200 3.0 4.0 0.00 0.00 0.00 99 1016.0
20260508010524 52 186 3.0 7.0 0.00 0.00 0.00 99 1016.1
20260508005536 52 178 5.0 9.0 0.00 0.00 0.00 99 1016.1
20260508004524 52 188 4.0 7.0 0.00 0.00 0.00 99 1016.2
20260508003548 52 186 4.0 9.0 0.00 0.00 0.00 99 1016.2
20260508002644 52 202 6.0 9.0 0.00 0.00 0.00 99 1016.2
20260508001536 52 199 4.0 7.0 0.00 0.00 0.00 99 1016.2
20260508000524 52 163 2.0 4.0 0.00 0.00 0.00 99 1016.2
20260507235544 52 203 1.0 4.0 0.00 0.00 0.00 99 1016.2
20260507234524 52 146 1.0 4.0 0.00 0.00 0.00 99 1016.2
20260507233524 52 118 2.0 7.0 0.00 0.00 0.00 99 1016.3
20260507232525 52 89 1.0 2.0 0.00 0.00 0.00 99 1016.5
20260507231544 52 135 3.0 4.0 0.00 0.00 0.00 99 1016.5
20260507230544 52 122 2.0 4.0 0.00 0.00 0.00 99 1016.5
20260507225604 52 113 2.0 4.0 0.00 0.00 0.00 99 1016.7
20260507224524 52 132 2.0 4.0 0.00 0.00 0.00 99 1016.7
20260507223536 52 189 4.0 7.0 0.00 0.00 0.00 99 1016.7
20260507222524 52 163 2.0 4.0 0.00 0.00 0.00 99 1016.8
20260507221524 52 161 2.0 4.0 0.00 0.00 0.00 99 1016.9
20260507220524 52 200 3.0 9.0 0.00 0.00 0.00 99 1017.0
20260507215524 52 204 4.0 9.0 0.00 0.00 0.00 99 1017.0
20260507214525 52 203 2.0 4.0 0.00 0.00 0.00 99 1017.0
20260507213544 52 210 2.0 7.0 0.00 0.00 0.00 99 1017.0
20260507212524 52 200 4.0 9.0 0.00 0.00 0.00 99 1017.1
20260507211524 52 193 4.0 7.0 0.00 0.00 0.00 99 1017.1
20260507210548 52 210 2.0 4.0 0.00 0.00 0.00 99 1017.1
20260507205524 52 201 2.0 4.0 0.00 0.00 0.00 99 1017.0
20260507204600 52 212 3.0 7.0 0.00 0.00 0.00 99 1017.1
20260507203548 52 217 3.0 7.0 0.00 0.00 0.00 99 1017.0
20260507202524 52 198 3.0 9.0 0.00 0.00 0.00 99 1016.9
20260507201524 52 199 3.0 7.0 0.00 0.00 0.00 99 1016.9
20260507200524 52 203 2.0 4.0 0.00 0.00 0.00 99 1017.0
20260507195524 52 210 3.0 7.0 0.00 0.00 0.00 99 1017.1
20260507194524 52 190 3.0 7.0 0.00 0.00 0.00 99 1017.1
20260507193605 52 172 3.0 7.0 0.00 0.00 0.00 99 1017.1
20260507192524 52 182 3.0 7.0 0.00 0.00 0.00 99 1017.1
20260507191548 52 210 3.0 7.0 0.00 0.00 0.00 99 1017.1
20260507190524 52 192 2.0 7.0 0.00 0.00 0.00 99 1017.0
20260507185524 52 194 1.0 4.0 0.00 0.00 0.00 99 1017.0
20260507184536 52 187 2.0 4.0 0.00 0.00 0.00 99 1017.0
20260507183524 52 198 1.0 4.0 0.00 0.00 0.00 99 1016.9
20260507182537 52 161 2.0 4.0 0.00 0.00 0.00 98 1016.8
20260507181544 52 167 2.0 4.0 0.00 0.00 0.00 98 1016.7
20260507180537 52 178 2.0 4.0 0.00 0.00 0.00 98 1016.8
20260507175549 52 176 2.0 7.0 0.00 0.00 0.00 97 1016.8
20260507174524 52 199 2.0 4.0 0.00 0.00 0.00 97 1016.7
20260507173524 52 221 3.0 4.0 0.00 0.00 0.00 97 1016.7
20260507172524 52 158 2.0 7.0 0.00 0.00 0.00 97 1016.6
20260507171524 52 150 2.0 7.0 0.00 0.00 0.00 97 1016.6
20260507170524 53 197 2.0 4.0 0.00 0.00 0.00 97 1016.7
20260507165536 53 168 3.0 7.0 0.00 0.00 0.00 96 1016.6
20260507164524 53 192 3.0 7.0 0.00 0.00 0.00 95 1016.7
20260507163524 53 204 2.0 7.0 0.00 0.00 0.00 95 1016.8
20260507162524 53 210 2.0 4.0 0.00 0.00 0.00 95 1016.8
20260507161524 54 174 2.0 4.0 0.00 0.00 0.00 94 1016.8
20260507160524 53 131 3.0 9.0 0.00 0.00 0.00 94 1016.9
20260507155624 54 180 3.0 7.0 0.00 0.00 0.00 94 1016.9
20260507154524 54 145 2.0 9.0 0.00 0.00 0.00 93 1016.9
20260507153524 54 167 3.0 7.0 0.00 0.00 0.00 94 1016.9
20260507152607 54 132 4.0 7.0 0.00 0.00 0.00 93 1017.0
20260507151620 54 131 4.0 7.0 0.00 0.00 0.00 92 1017.0
20260507150544 54 134 6.0 11.0 0.00 0.00 0.00 92 1017.0
20260507145524 54 139 6.0 11.0 0.00 0.00 0.00 92 1017.1
20260507144524 54 127 6.0 9.0 0.00 0.00 0.00 91 1017.2
20260507143524 54 133 3.0 7.0 0.00 0.00 0.00 92 1017.3
20260507142548 54 135 5.0 9.0 0.00 0.00 0.00 92 1017.3
20260507141524 54 134 5.0 9.0 0.00 0.00 0.00 92 1017.3
20260507140524 54 149 5.0 9.0 0.00 0.00 0.00 92 1017.4
20260507135524 55 148 4.0 9.0 0.00 0.00 0.00 91 1017.4
20260507134524 54 134 6.0 11.0 0.00 0.00 0.00 90 1017.4
20260507133524 55 149 6.0 15.0 0.00 0.00 0.00 88 1017.4
20260507132536 55 138 6.0 9.0 0.00 0.00 0.00 89 1017.4
20260507131600 56 148 5.0 9.0 0.00 0.00 0.00 86 1017.5
20260507130524 56 217 4.0 11.0 0.00 0.00 0.00 86 1017.5
20260507125524 55 168 4.0 9.0 0.00 0.00 0.00 87 1017.6
20260507124524 55 186 4.0 9.0 0.00 0.00 0.00 88 1017.6
20260507123524 54 141 7.0 11.0 0.00 0.00 0.00 88 1017.7
20260507122524 55 132 7.0 11.0 0.00 0.00 0.00 87 1017.8
20260507121524 55 129 6.0 9.0 0.00 0.00 0.00 87 1017.9
20260507120548 54 138 6.0 11.0 0.00 0.00 0.00 87 1018.0
20260507115524 55 128 6.0 11.0 0.00 0.00 0.00 86 1018.1
20260507114525 55 168 4.0 9.0 0.00 0.00 0.00 88 1018.1
20260507113537 55 138 6.0 11.0 0.00 0.00 0.00 87 1018.1
20260507112524 56 206 5.0 9.0 0.00 0.00 0.00 85 1018.1
20260507111608 55 130 6.0 9.0 0.00 0.00 0.00 88 1018.1
20260507110536 55 145 6.0 15.0 0.00 0.00 0.00 86 1018.1
20260507105544 55 137 6.0 11.0 0.00 0.00 0.00 87 1018.1
20260507104524 55 128 6.0 11.0 0.00 0.00 0.00 87 1018.1
20260507103524 54 130 7.0 17.0 0.00 0.00 0.00 87 1018.2
20260507102544 55 177 5.0 11.0 0.00 0.00 0.00 87 1018.2
20260507101545 54 133 6.0 11.0 0.00 0.00 0.00 87 1018.2
20260507100557 54 179 5.0 11.0 0.00 0.00 0.00 87 1018.2
20260507095524 54 155 5.0 9.0 0.00 0.00 0.00 88 1018.2
20260507094524 54 138 6.0 11.0 0.00 0.00 0.00 88 1018.2
20260507093525 55 150 4.0 11.0 0.00 0.00 0.00 87 1018.2
20260507092524 55 160 5.0 11.0 0.00 0.00 0.00 88 1018.1
20260507091524 54 121 6.0 9.0 0.00 0.00 0.00 89 1018.0
20260507090524 54 157 5.0 11.0 0.00 0.00 0.00 88 1018.1
20260507085544 55 135 4.0 9.0 0.00 0.00 0.00 87 1018.2
20260507084524 54 172 5.0 9.0 0.00 0.00 0.00 88 1018.1
20260507083544 55 190 4.0 11.0 0.00 0.00 0.00 87 1018.1
20260507082536 55 167 4.0 9.0 0.00 0.00 0.00 86 1018.0
20260507081537 54 186 5.0 9.0 0.00 0.00 0.00 86 1017.9
20260507080524 53 138 6.0 11.0 0.00 0.00 0.00 89 1018.0
20260507075609 54 145 5.0 9.0 0.00 0.00 0.00 87 1018.0
20260507074524 54 191 5.0 9.0 0.00 0.00 0.00 87 1018.0
20260507073524 54 148 5.0 9.0 0.00 0.00 0.00 88 1018.0
20260507072524 54 187 5.0 9.0 0.00 0.00 0.00 87 1018.0
20260507071524 54 153 5.0 11.0 0.00 0.00 0.00 89 1017.9
20260507070544 54 146 5.0 11.0 0.00 0.00 0.00 88 1018.0
20260507065524 54 194 4.0 9.0 0.00 0.00 0.00 89 1018.0
20260507064525 54 180 5.0 9.0 0.00 0.00 0.00 88 1018.0
20260507063536 54 191 5.0 11.0 0.00 0.00 0.00 86 1018.0
20260507062536 54 194 5.0 9.0 0.00 0.00 0.00 86 1018.0
20260507061545 55 181 4.0 9.0 0.00 0.00 0.00 85 1017.9
20260507060536 54 197 5.0 9.0 0.00 0.00 0.00 86 1017.8
20260507055525 54 186 5.0 9.0 0.00 0.00 0.00 86 1017.7
20260507054525 54 202 5.0 9.0 0.00 0.00 0.00 86 1017.6
20260507053556 55 180 4.0 9.0 0.00 0.00 0.00 86 1017.6